Home > Time Zones > World Clock > Weather > Iran > Kerman > Past weeks

Flag for Iran Weather past 2 weeks in Kerman, Iran

Now
75 °F

Clear.


Feels Like: 76 °F
Forecast: 62 / 96 °F
Wind: 5 mph from Northwest

Location: Kerman Airport

Current Time: Jul 7, 2015 at 3:28:15 AM

Latest Report: Jul 7, 2015 at 2:30 AM


Visibility: 10 mi

Pressure: 29.86 "Hg (24.38 "Hg at 1762m altitude)

Humidity: 16%

Dew point: 27 °F

Location of KermanLocation

Historic Weather in Kerman — Graph

°F

Kerman temperature yesterday

Maximum temperature yesterday: 95 °F (at 4:30 PM)
Minimum temperature yesterday: 75 °F (at 5:30 AM)
Average temperature yesterday: 86 °F

Past Weeks' High & Low Weather Summary

 TemperatureHumidityPressure
High100 °F (Jun 22, 3:00 PM)30% (Jul 6, 6:30 AM)30.12 "Hg (Jul 6, 6:30 AM)
Low64 °F (Jun 22, 5:30 AM)3% (Jun 22, 5:30 PM)29.65 "Hg (Jun 27, 5:30 PM)
Average86 °F11%29.95 "Hg
* Reported Jun 22 2:30 AM — Jul 7 2:30 AM, Kerman, Weather by CustomWeather, © 2015

Note: Actual official high and low records may vary slightly from our data, if they occured in-between our weather recording intervals... More about our weather records

Advertising

Kerman weather history for previous 24 hours

 ConditionsComfort  
Time TempWeatherWind HumidityBarometerVisibility
2:30 AM
Tue, Jul 7
75 °FClear.5 mph16%29.86 "Hg10 mi
1:30 AM81 °FClear.7 mph14%29.98 "Hg10 mi
12:30 AM79 °FClear.7 mph16%29.98 "Hg10 mi
11:30 PM
Mon, Jul 6
81 °FClear.7 mph15%29.98 "Hg10 mi
10:30 PM81 °FClear.7 mph16%29.98 "Hg10 mi
9:30 PM84 °FClear.9 mph14%29.98 "Hg10 mi
8:30 PM86 °FSunny.9 mph12%29.95 "Hg10 mi
7:30 PM90 °FSunny.12 mph9%29.95 "Hg10 mi
6:30 PM91 °FSunny.16 mph9%29.95 "Hg10 mi
5:30 PM93 °FSunny.14 mph8%29.95 "Hg10 mi
4:30 PM95 °FSunny.12 mph6%29.95 "Hg10 mi
3:30 PM93 °FSunny.12 mph6%29.95 "Hg10 mi
2:30 PM93 °FSunny.14 mph6%29.98 "Hg10 mi
1:30 PM93 °FSunny.14 mph6%29.98 "Hg10 mi
12:30 PM91 °FSunny.14 mph7%30.01 "Hg10 mi
12:00 PM91 °FSunny.14 mph7%30.01 "Hg10 mi
11:30 AM91 °FSunny.12 mph8%30.01 "Hg10 mi
10:30 AM90 °FSunny.16 mph10%30.04 "Hg10 mi
10:00 AM88 °FSunny.12 mph12%30.04 "Hg10 mi
9:30 AM86 °FSunny.14 mph15%30.04 "Hg10 mi
8:30 AM86 °FSunny.9 mph18%30.04 "Hg10 mi
7:30 AM81 °FClear.12 mph23%30.04 "Hg5 mi
6:30 AM77 °FClear.9 mph30%30.01 "Hg5 mi
5:30 AM75 °FClear.7 mph27%30.01 "Hg5 mi
4:30 AM77 °FClear.7 mph24%30.01 "Hg5 mi
3:30 AM79 °FClear.5 mph24%30.01 "Hg4 mi
Weather by CustomWeather, © 2015

See weather overviewHow to use our weather pages